C/2011 KP36 ( Spacewatch )

Japanese version
Home page
Updated on February 7, 2017

---------------------------------------------------------------------

* Profile

Discovery Date May 21, 2011
Magnitude 20.4 mag
Discoverer T. H. Bressi (Kitt Peak)

* Pictures

* Orbital Elements

Epoch 2016 May 12.0 TT = JDT 2457520.5
T 2016 May 26.89893 TT                                  MPCW
q   4.8833015            (2000.0)            P               Q
z  +0.0260358      Peri.  180.59804     +0.99445374     +0.09830333
 +/-0.0000000      Node   173.40038     -0.09509496     +0.99227971
e   0.8728593      Incl.   18.98676     -0.04492997     +0.07561374
From 2191 observations 2011 May 21-2016 Nov. 8, mean residual 0".4.

* Finding Charts

* Magnitudes Graph

        m1 = 4.0 + 5 log d + 10.0 log r

---------------------------------------------------------------------

The orbital elements are published on M.P.E.C. 2016-V116.
The charts are made with StellaNavigator Ver.8 (AstroArts).
The magnitudes graphs are made with Comet for Windows.

---------------------------------------------------------------------

Copyright(C) Seiichi Yoshida (comet@aerith.net). All rights reserved.